AirNav   Pilot Hours Calculator
 
 897 users online  

90PN Miners Medical Center Heliport
Hastings, Pennsylvania, USA

GOING TO HASTINGS?


FAA INFORMATION EFFECTIVE 31 DECEMBER 2020

Location

FAA Identifier: 90PN
Lat/Long: 40-39-30.0000N 078-42-22.0000W
40-39.500000N 078-42.366667W
40.6583333,-78.7061111
(estimated)
Elevation: 1825 ft. / 556 m (estimated)
From city: 1 mile SE of HASTINGS, PA
Time zone: UTC -5 (UTC -4 during Daylight Saving Time)
Zip code: 16646

Heliport Operations

Heliport use: Private use. Permission required prior to landing
Activation date: 03/2012
Control tower: no
ARTCC: CLEVELAND CENTER
FSS: ALTOONA FLIGHT SERVICE STATION
Attendance: UNATNDD
Wind indicator: yes
Segmented circle: no

Heliport Communications

WX AWOS-3 at IDI (18 nm W): 126.625 (724-388-0204)

Nearby radio navigation aids

VOR radial/distance  VOR name  Freq  Var
RECr025/7.0REVLOC VOR/DME110.6009W
JSTr022/21.3JOHNSTOWN VOR/DME113.0006W
PSBr254/35.9PHILIPSBURG VORTAC115.5010W

 
NDB name  Hdg/Dist  Freq  Var  ID
STOYSTOWN026/35.720910WSYS ... -.-- ...

Heliport Services

Runway Information

Helipad H1

Dimensions: 60 x 60 ft. / 18 x 18 m
Surface: asphalt
Latitude: 40-39.500000N
Longitude: 078-42.366667W
Elevation: 1825.0 ft.
Traffic pattern: leftleft

Heliport Ownership and Management from official FAA records

Ownership: Privately-owned
Owner: MINERS MEDICAL CENTER
290 HAIDA AVENUE
HASTINGS, PA 16646
Phone 814-247-3100
Manager: JAMES HOMERSKI
290 HAIDA AVENUE
HASTINGS, PA 16646
Phone 814-247-3100

Additional Remarks

FOR CD CTC JOHNSTOWN APCH AT 814-532-5960, WHEN APCH CLSD CTC CLEVELAND ARTCC AT 440-774-0234.

Instrument Procedures

There are no published instrument procedures at 90PN.

Some nearby airports with instrument procedures:

9G8 - Ebensburg Airport (12 nm S)
KIDI - Indiana County Airport (Jimmy Stewart Field) (18 nm W)
N35 - Punxsutawney Municipal Airport (21 nm NW)
KJST - John Murtha Johnstown-Cambria County Airport (21 nm S)
KFIG - Clearfield-Lawrence Airport (27 nm NE)
 
Loc | Ops | Rwys | IFR | FBO | Links
Com | Nav | Svcs | Stats | Notes
Aerial photo
No photo
 
Airport distance calculator
Flying to Miners Medical Center Heliport? Find the distance to fly.

From to 90PN

Sunrise and sunset
Times for 17-Jan-2021
 Local
(UTC-5)
 Zulu
(UTC)
Morning civil twilight07:0712:07
Sunrise07:3712:37
Sunset17:1322:13
Evening civil twilight17:4322:43

Current date and time
Zulu (UTC)  18-Jan-2021 03:10:46
Local (UTC-5)  17-Jan-2021 22:10:46
 
METAR
KIDI 
17nm W 
180255Z AUTO 24005KT 5SM BR OVC008 00/00 A2972 RMK A01
KJST 
21nm S 
180258Z AUTO 25008KT 2 1/2SM -SN BR SCT003 BKN007 OVC011 M02/M03 A2964 RMK AO2 CIG 005V009 P0000 T10171033
KFIG 
27nm NE 
180254Z AUTO 21007KT 3SM -SN BR BKN003 OVC015 M01/M01 A2966 RMK AO2 SLP058 P0000 60001 T10061011 56004
KAOO 
28nm SE 
180253Z AUTO 21008KT 10SM FEW024 BKN036 00/M03 A2969 RMK AO2 SLP066 T00001033 57005
KDUJ 
32nm N 
180253Z AUTO 24010KT 1 1/2SM -SN BR BKN006 OVC011 M01/M02 A2963 RMK AO2 CIG 004V009 SLP050 P0000 60001 T10061022 56005
TAF
KJST 
21nm S 
172116Z 1721/1818 25011G15KT 4SM -SN BKN010 FM180000 24007KT 4SM -SHSN OVC006 FM181200 24010G20KT 3SM -SHSN OVC009
NOTAMs
Click for the latest NOTAMs
NOTAMs are issued by the DoD/FAA and will open in a separate window not controlled by AirNav.

 

 
 

Would you like to see your business listed on this page?

 If your business provides an interesting product or service to pilots, flight crews, aircraft, or users of the Miners Medical Center Heliport, you should consider listing it here.  To start the listing process, click on the button below
 
Add a business
 

Other Pages about Miners Medical Center Heliport

Update a link
 
Copyright © AirNav, LLC. All rights reserved. Privacy Policy  Contact